Time,TemperatureF,DewpointF,PressureIn,WindDirection,WindDirectionDegrees,WindSpeedMPH,WindSpeedGustMPH,Humidity,HourlyPrecipIn,Conditions,Clouds,dailyrainin,SoftwareType,DateUTC
2013-08-04 00:04:00,54.5,38.1,30.21,SSE,161,0.0,1.0,54,0.00,,,0.00,meteohub,2013-08-04 07:04:00,
2013-08-04 00:09:00,54.3,37.9,30.21,SE,136,0.0,1.0,54,0.00,,,0.00,meteohub,2013-08-04 07:09:00,
2013-08-04 00:14:00,54.1,37.9,30.22,SSE,150,0.0,1.0,54,0.00,,,0.00,meteohub,2013-08-04 07:14:00,
2013-08-04 00:19:00,54.0,37.8,30.22,SSE,159,0.0,1.0,54,0.00,,,0.00,meteohub,2013-08-04 07:19:00,
2013-08-04 00:24:00,53.8,37.9,30.22,SSE,164,0.0,1.0,55,0.00,,,0.00,meteohub,2013-08-04 07:24:00,
2013-08-04 00:29:00,53.4,37.6,30.22,SSE,159,0.0,1.0,55,0.00,,,0.00,meteohub,2013-08-04 07:29:00,
2013-08-04 00:34:00,53.2,37.4,30.22,SSE,150,1.0,1.0,55,0.00,,,0.00,meteohub,2013-08-04 07:34:00,
2013-08-04 00:39:00,53.1,37.4,30.22,SE,134,0.0,1.0,55,0.00,,,0.00,meteohub,2013-08-04 07:39:00,
2013-08-04 00:44:00,53.1,37.8,30.21,SSW,195,0.0,2.0,56,0.00,,,0.00,meteohub,2013-08-04 07:44:00,
2013-08-04 00:49:00,52.9,37.6,30.21,SSE,150,0.0,2.0,56,0.00,,,0.00,meteohub,2013-08-04 07:49:00,
2013-08-04 00:54:00,52.5,37.2,30.21,SSE,161,2.0,2.0,56,0.00,,,0.00,meteohub,2013-08-04 07:54:00,
2013-08-04 00:59:00,52.5,37.2,30.22,SSE,154,1.0,2.0,56,0.00,,,0.00,meteohub,2013-08-04 07:59:00,
2013-08-04 01:04:00,52.3,37.6,30.22,SSE,161,0.0,2.0,57,0.00,,,0.00,meteohub,2013-08-04 08:04:00,
2013-08-04 01:09:00,52.2,37.8,30.21,SSE,163,0.0,2.0,58,0.00,,,0.00,meteohub,2013-08-04 08:09:00,
2013-08-04 01:14:00,52.0,37.6,30.21,SSW,196,0.0,2.0,58,0.00,,,0.00,meteohub,2013-08-04 08:14:00,
2013-08-04 01:19:00,51.6,37.4,30.21,SE,134,0.0,2.0,58,0.00,,,0.00,meteohub,2013-08-04 08:19:00,
2013-08-04 01:24:00,51.4,37.2,30.21,SSE,167,0.0,1.0,58,0.00,,,0.00,meteohub,2013-08-04 08:24:00,
2013-08-04 01:29:00,51.4,37.6,30.22,SE,141,0.0,1.0,59,0.00,,,0.00,meteohub,2013-08-04 08:29:00,
2013-08-04 01:34:00,51.3,37.4,30.21,SSE,154,0.0,1.0,59,0.00,,,0.00,meteohub,2013-08-04 08:34:00,
2013-08-04 01:40:00,51.1,37.2,30.21,SSE,161,0.0,2.0,59,0.00,,,0.00,meteohub,2013-08-04 08:40:00,
2013-08-04 01:45:00,50.9,37.0,30.21,SSE,156,0.0,2.0,59,0.00,,,0.00,meteohub,2013-08-04 08:45:00,
2013-08-04 01:50:00,50.7,36.9,30.21,SSE,159,0.0,0.0,59,0.00,,,0.00,meteohub,2013-08-04 08:50:00,
2013-08-04 01:55:00,50.5,37.2,30.21,SSE,154,0.0,1.0,60,0.00,,,0.00,meteohub,2013-08-04 08:55:00,
2013-08-04 02:00:00,50.4,37.0,30.21,SSE,150,1.0,1.0,60,0.00,,,0.00,meteohub,2013-08-04 09:00:00,
2013-08-04 02:05:00,50.2,36.9,30.21,SSE,159,1.0,1.0,60,0.00,,,0.00,meteohub,2013-08-04 09:05:00,
2013-08-04 02:10:00,50.0,36.7,30.21,SSE,152,0.0,1.0,60,0.00,,,0.00,meteohub,2013-08-04 09:10:00,
2013-08-04 02:15:00,49.8,36.5,30.21,SSE,168,0.0,1.0,60,0.00,,,0.00,meteohub,2013-08-04 09:15:00,
2013-08-04 02:20:00,49.6,36.7,30.21,SSE,150,2.0,2.0,61,0.00,,,0.00,meteohub,2013-08-04 09:20:00,
2013-08-04 02:25:00,49.5,37.0,30.21,SSE,162,0.0,2.0,62,0.00,,,0.00,meteohub,2013-08-04 09:25:00,
2013-08-04 02:30:00,49.5,37.0,30.21,SSE,157,0.0,2.0,62,0.00,,,0.00,meteohub,2013-08-04 09:30:00,
2013-08-04 02:35:00,49.3,36.9,30.21,SE,140,1.0,2.0,62,0.00,,,0.00,meteohub,2013-08-04 09:35:00,
2013-08-04 02:40:00,48.9,36.5,30.21,South,175,0.0,2.0,62,0.00,,,0.00,meteohub,2013-08-04 09:40:00,
2013-08-04 02:45:00,48.7,36.7,30.21,SSE,164,0.0,2.0,63,0.00,,,0.00,meteohub,2013-08-04 09:45:00,
2013-08-04 02:51:00,48.6,36.5,30.21,SSE,168,0.0,2.0,63,0.00,,,0.00,meteohub,2013-08-04 09:51:00,
2013-08-04 02:56:00,48.6,36.5,30.21,WSW,245,0.0,0.0,63,0.00,,,0.00,meteohub,2013-08-04 09:56:00,
2013-08-04 03:01:00,48.4,36.3,30.21,SE,144,0.0,1.0,63,0.00,,,0.00,meteohub,2013-08-04 10:01:00,
2013-08-04 03:06:00,48.4,36.3,30.21,SSE,165,0.0,1.0,63,0.00,,,0.00,meteohub,2013-08-04 10:06:00,
2013-08-04 03:11:00,48.2,36.1,30.21,South,169,0.0,1.0,63,0.00,,,0.00,meteohub,2013-08-04 10:11:00,
2013-08-04 03:16:00,48.0,36.5,30.21,SSE,154,0.0,1.0,64,0.00,,,0.00,meteohub,2013-08-04 10:16:00,
2013-08-04 03:21:00,47.8,35.8,30.21,SSE,160,0.0,0.0,63,0.00,,,0.00,meteohub,2013-08-04 10:21:00,
2013-08-04 03:26:00,47.7,35.6,30.21,SSE,154,0.0,1.0,63,0.00,,,0.00,meteohub,2013-08-04 10:26:00,
2013-08-04 03:31:00,47.7,35.6,30.21,SSE,157,0.0,1.0,63,0.00,,,0.00,meteohub,2013-08-04 10:31:00,
2013-08-04 03:36:00,47.7,35.6,30.21,SE,126,0.0,0.0,63,0.00,,,0.00,meteohub,2013-08-04 10:36:00,
2013-08-04 03:41:00,47.5,35.6,30.21,SE,142,0.0,0.0,63,0.00,,,0.00,meteohub,2013-08-04 10:41:00,
2013-08-04 03:46:00,47.5,35.6,30.21,SSE,166,0.0,0.0,63,0.00,,,0.00,meteohub,2013-08-04 10:46:00,
2013-08-04 03:51:00,47.3,35.4,30.21,SSE,148,0.0,1.0,63,0.00,,,0.00,meteohub,2013-08-04 10:51:00,
2013-08-04 03:56:00,47.1,34.7,30.21,SSE,163,0.0,1.0,62,0.00,,,0.00,meteohub,2013-08-04 10:56:00,
2013-08-04 04:01:00,47.1,35.2,30.21,South,186,0.0,1.0,63,0.00,,,0.00,meteohub,2013-08-04 11:01:00,
2013-08-04 04:07:00,46.9,35.1,30.21,SSE,164,0.0,1.0,63,0.00,,,0.00,meteohub,2013-08-04 11:07:00,
2013-08-04 04:12:00,46.8,34.9,30.21,South,169,0.0,0.0,63,0.00,,,0.00,meteohub,2013-08-04 11:12:00,
2013-08-04 04:17:00,46.8,34.9,30.21,SSE,161,0.0,1.0,63,0.00,,,0.00,meteohub,2013-08-04 11:17:00,
2013-08-04 04:22:00,46.6,34.7,30.22,SE,141,1.0,1.0,63,0.00,,,0.00,meteohub,2013-08-04 11:22:00,
2013-08-04 04:27:00,46.6,34.7,30.22,SSE,152,0.0,2.0,63,0.00,,,0.00,meteohub,2013-08-04 11:27:00,
2013-08-04 04:32:00,46.6,34.3,30.22,SE,142,0.0,2.0,62,0.00,,,0.00,meteohub,2013-08-04 11:32:00,
2013-08-04 04:37:00,46.6,34.3,30.22,SE,135,0.0,2.0,62,0.00,,,0.00,meteohub,2013-08-04 11:37:00,
2013-08-04 04:42:00,46.6,33.8,30.22,SSE,164,1.0,1.0,61,0.00,,,0.00,meteohub,2013-08-04 11:42:00,
2013-08-04 04:47:00,46.6,33.4,30.22,South,169,0.0,2.0,60,0.00,,,0.00,meteohub,2013-08-04 11:47:00,
2013-08-04 04:52:00,46.4,33.6,30.22,SSE,157,0.0,2.0,61,0.00,,,0.00,meteohub,2013-08-04 11:52:00,
2013-08-04 04:57:00,46.2,33.4,30.22,SSE,149,0.0,2.0,61,0.00,,,0.00,meteohub,2013-08-04 11:57:00,
2013-08-04 05:02:00,46.0,33.3,30.22,SSE,161,1.0,2.0,61,0.00,,,0.00,meteohub,2013-08-04 12:02:00,
2013-08-04 05:07:00,45.9,33.3,30.22,SSW,213,0.0,2.0,61,0.00,,,0.00,meteohub,2013-08-04 12:07:00,
2013-08-04 05:12:00,45.9,33.6,30.22,SE,144,1.0,2.0,62,0.00,,,0.00,meteohub,2013-08-04 12:12:00,
2013-08-04 05:17:00,45.7,33.4,30.22,SE,138,2.0,2.0,62,0.00,,,0.00,meteohub,2013-08-04 12:17:00,
2013-08-04 05:22:00,45.3,33.1,30.22,SSE,156,0.0,2.0,62,0.00,,,0.00,meteohub,2013-08-04 12:22:00,
2013-08-04 05:27:00,45.3,33.1,30.22,SSW,198,0.0,2.0,62,0.00,,,0.00,meteohub,2013-08-04 12:27:00,
2013-08-04 05:32:00,45.1,32.9,30.22,SSE,161,1.0,2.0,62,0.00,,,0.00,meteohub,2013-08-04 12:32:00,
2013-08-04 05:37:00,45.0,33.1,30.22,SSE,150,0.0,2.0,63,0.00,,,0.00,meteohub,2013-08-04 12:37:00,
2013-08-04 05:43:00,45.0,33.1,30.22,SSE,148,0.0,2.0,63,0.00,,,0.00,meteohub,2013-08-04 12:43:00,
2013-08-04 05:47:00,45.0,33.1,30.22,South,188,1.0,2.0,63,0.00,,,0.00,meteohub,2013-08-04 12:47:00,
2013-08-04 05:52:00,44.8,32.5,30.22,SSE,156,2.0,2.0,62,0.00,,,0.00,meteohub,2013-08-04 12:52:00,
2013-08-04 05:58:00,44.8,32.5,30.22,SSE,161,0.0,3.0,62,0.00,,,0.00,meteohub,2013-08-04 12:58:00,
2013-08-04 06:03:00,44.6,32.4,30.22,SSE,163,0.0,3.0,62,0.00,,,0.00,meteohub,2013-08-04 13:03:00,
2013-08-04 06:08:00,44.6,32.0,30.23,SSE,156,0.0,3.0,61,0.00,,,0.00,meteohub,2013-08-04 13:08:00,
2013-08-04 06:13:00,44.4,31.5,30.23,SSE,155,0.0,3.0,60,0.00,,,0.00,meteohub,2013-08-04 13:13:00,
2013-08-04 06:18:00,44.4,31.5,30.23,South,180,0.0,3.0,60,0.00,,,0.00,meteohub,2013-08-04 13:18:00,
2013-08-04 06:23:00,44.4,31.5,30.23,SSW,205,0.0,3.0,60,0.00,,,0.00,meteohub,2013-08-04 13:23:00,
2013-08-04 06:28:00,44.6,32.0,30.23,SSE,163,0.0,2.0,61,0.00,,,0.00,meteohub,2013-08-04 13:28:00,
2013-08-04 06:33:00,44.8,32.2,30.23,SSE,153,3.0,3.0,61,0.00,,,0.00,meteohub,2013-08-04 13:33:00,
2013-08-04 06:38:00,44.8,32.2,30.23,SSE,155,2.0,3.0,61,0.00,,,0.00,meteohub,2013-08-04 13:38:00,
2013-08-04 06:43:00,44.8,32.2,30.23,South,186,2.0,3.0,61,0.00,,,0.00,meteohub,2013-08-04 13:43:00,
2013-08-04 06:49:00,45.0,32.7,30.23,SE,146,0.0,3.0,62,0.00,,,0.00,meteohub,2013-08-04 13:49:00,
2013-08-04 06:54:00,45.1,32.5,30.23,SE,126,1.0,3.0,61,0.00,,,0.00,meteohub,2013-08-04 13:54:00,
2013-08-04 06:58:00,45.3,32.2,30.23,SSE,148,0.0,3.0,60,0.00,,,0.00,meteohub,2013-08-04 13:58:00,
2013-08-04 07:04:00,45.7,32.5,30.23,South,182,0.0,2.0,60,0.00,,,0.00,meteohub,2013-08-04 14:04:00,
2013-08-04 07:09:00,45.9,32.0,30.24,SSE,161,0.0,2.0,58,0.00,,,0.00,meteohub,2013-08-04 14:09:00,
2013-08-04 07:14:00,46.4,32.0,30.24,SE,144,0.0,2.0,57,0.00,,,0.00,meteohub,2013-08-04 14:14:00,
2013-08-04 07:19:00,46.6,32.5,30.24,ESE,112,0.0,2.0,58,0.00,,,0.00,meteohub,2013-08-04 14:19:00,
2013-08-04 07:24:00,47.1,33.1,30.24,ESE,112,0.0,1.0,58,0.00,,,0.00,meteohub,2013-08-04 14:24:00,
2013-08-04 07:29:00,48.0,32.5,30.24,SSE,148,0.0,1.0,55,0.00,,,0.00,meteohub,2013-08-04 14:29:00,
2013-08-04 07:34:00,48.9,34.0,30.24,SE,144,0.0,1.0,56,0.00,,,0.00,meteohub,2013-08-04 14:34:00,
2013-08-04 07:39:00,49.8,34.3,30.24,SSE,150,1.0,1.0,55,0.00,,,0.00,meteohub,2013-08-04 14:39:00,
2013-08-04 07:44:00,51.1,34.0,30.24,SE,144,0.0,2.0,52,0.00,,,0.00,meteohub,2013-08-04 14:44:00,
2013-08-04 07:49:00,52.2,34.5,30.24,SE,140,0.0,2.0,51,0.00,,,0.00,meteohub,2013-08-04 14:49:00,
2013-08-04 07:54:00,53.8,35.6,30.24,SE,140,0.0,2.0,50,0.00,,,0.00,meteohub,2013-08-04 14:54:00,
2013-08-04 07:59:00,55.2,34.2,30.24,SE,140,0.0,2.0,45,0.00,,,0.00,meteohub,2013-08-04 14:59:00,
2013-08-04 08:04:00,56.8,35.8,30.24,SE,137,0.0,1.0,45,0.00,,,0.00,meteohub,2013-08-04 15:04:00,
2013-08-04 08:09:00,58.5,36.0,30.24,SE,137,0.0,1.0,43,0.00,,,0.00,meteohub,2013-08-04 15:09:00,
2013-08-04 08:14:00,59.9,36.7,30.24,SE,137,0.0,1.0,42,0.00,,,0.00,meteohub,2013-08-04 15:14:00,
2013-08-04 08:20:00,61.3,38.7,30.24,SE,137,0.0,1.0,43,0.00,,,0.00,meteohub,2013-08-04 15:20:00,
2013-08-04 08:25:00,62.8,39.4,30.24,SE,137,0.0,0.0,42,0.00,,,0.00,meteohub,2013-08-04 15:25:00,
2013-08-04 08:30:00,61.2,39.7,30.24,NNW,332,1.0,1.0,45,0.00,,,0.00,meteohub,2013-08-04 15:30:00,
2013-08-04 08:35:00,60.1,39.7,30.24,NNW,332,1.0,1.0,47,0.00,,,0.00,meteohub,2013-08-04 15:35:00,
2013-08-04 08:40:00,59.7,40.5,30.24,NNW,333,0.0,1.0,49,0.00,,,0.00,meteohub,2013-08-04 15:40:00,
2013-08-04 08:45:00,60.1,39.7,30.24,NNW,334,1.0,1.0,47,0.00,,,0.00,meteohub,2013-08-04 15:45:00,
2013-08-04 08:50:00,60.4,38.5,30.24,NNW,333,1.0,2.0,44,0.00,,,0.00,meteohub,2013-08-04 15:50:00,
2013-08-04 08:55:00,60.8,38.1,30.24,NNW,333,0.0,2.0,43,0.00,,,0.00,meteohub,2013-08-04 15:55:00,
2013-08-04 09:00:00,61.2,38.5,30.23,NNW,333,1.0,2.0,43,0.00,,,0.00,meteohub,2013-08-04 16:00:00,
2013-08-04 09:05:00,61.0,40.1,30.24,NNW,333,1.0,3.0,46,0.00,,,0.00,meteohub,2013-08-04 16:05:00,
2013-08-04 09:10:00,61.0,41.7,30.24,NNE,22,1.0,3.0,49,0.00,,,0.00,meteohub,2013-08-04 16:10:00,
2013-08-04 09:15:00,61.2,40.8,30.23,NNW,333,1.0,3.0,47,0.00,,,0.00,meteohub,2013-08-04 16:15:00,
2013-08-04 09:20:00,61.3,41.0,30.23,NNW,329,1.0,2.0,47,0.00,,,0.00,meteohub,2013-08-04 16:20:00,
2013-08-04 09:25:00,61.3,39.7,30.23,NNW,344,2.0,2.0,45,0.00,,,0.00,meteohub,2013-08-04 16:25:00,
2013-08-04 09:30:00,61.5,39.9,30.23,NNW,347,1.0,2.0,45,0.00,,,0.00,meteohub,2013-08-04 16:30:00,
2013-08-04 09:35:00,61.5,41.2,30.23,NNW,329,1.0,3.0,47,0.00,,,0.00,meteohub,2013-08-04 16:35:00,
2013-08-04 09:40:00,61.5,43.7,30.23,NNW,331,3.0,3.0,52,0.00,,,0.00,meteohub,2013-08-04 16:40:00,
2013-08-04 09:46:00,61.3,43.0,30.23,NW,317,2.0,3.0,51,0.00,,,0.00,meteohub,2013-08-04 16:46:00,
2013-08-04 09:51:00,61.3,44.6,30.23,NNE,13,2.0,3.0,54,0.00,,,0.00,meteohub,2013-08-04 16:51:00,
2013-08-04 09:56:00,61.5,44.8,30.23,NW,322,3.0,4.0,54,0.00,,,0.00,meteohub,2013-08-04 16:56:00,
2013-08-04 10:01:00,61.5,45.1,30.23,NNW,332,2.0,4.0,55,0.00,,,0.00,meteohub,2013-08-04 17:01:00,
2013-08-04 10:06:00,61.5,46.2,30.23,NW,320,2.0,4.0,57,0.00,,,0.00,meteohub,2013-08-04 17:06:00,
2013-08-04 10:11:00,61.5,47.1,30.22,NW,326,3.0,4.0,59,0.00,,,0.00,meteohub,2013-08-04 17:11:00,
2013-08-04 10:16:00,61.5,47.5,30.22,NW,323,2.0,4.0,60,0.00,,,0.00,meteohub,2013-08-04 17:16:00,
2013-08-04 10:21:00,61.7,48.2,30.22,NW,320,3.0,4.0,61,0.00,,,0.00,meteohub,2013-08-04 17:21:00,
2013-08-04 10:26:00,61.9,49.1,30.22,NW,323,2.0,4.0,63,0.00,,,0.00,meteohub,2013-08-04 17:26:00,
2013-08-04 10:32:00,61.9,48.7,30.22,NW,322,3.0,4.0,62,0.00,,,0.00,meteohub,2013-08-04 17:32:00,
2013-08-04 10:37:00,62.1,48.9,30.22,NW,323,3.0,5.0,62,0.00,,,0.00,meteohub,2013-08-04 17:37:00,
2013-08-04 10:41:00,62.2,48.2,30.21,NNW,327,2.0,5.0,60,0.00,,,0.00,meteohub,2013-08-04 17:41:00,
2013-08-04 10:47:00,62.4,49.6,30.21,NW,323,3.0,4.0,63,0.00,,,0.00,meteohub,2013-08-04 17:47:00,
2013-08-04 10:51:00,62.4,47.8,30.21,NNW,330,3.0,4.0,59,0.00,,,0.00,meteohub,2013-08-04 17:51:00,
2013-08-04 10:57:00,62.6,49.8,30.21,NW,324,4.0,4.0,63,0.00,,,0.00,meteohub,2013-08-04 17:57:00,
2013-08-04 11:02:00,63.0,48.9,30.21,NW,324,3.0,4.0,60,0.00,,,0.00,meteohub,2013-08-04 18:02:00,
2013-08-04 11:07:00,63.0,46.9,30.21,NNW,328,3.0,4.0,56,0.00,,,0.00,meteohub,2013-08-04 18:07:00,
2013-08-04 11:12:00,63.1,48.6,30.20,NNW,347,4.0,4.0,59,0.00,,,0.00,meteohub,2013-08-04 18:12:00,
2013-08-04 11:17:00,63.3,49.3,30.20,NW,323,3.0,5.0,60,0.00,,,0.00,meteohub,2013-08-04 18:17:00,
2013-08-04 11:22:00,63.7,48.2,30.20,NW,324,5.0,5.0,57,0.00,,,0.00,meteohub,2013-08-04 18:22:00,
2013-08-04 11:27:00,63.7,46.8,30.20,NW,325,4.0,5.0,54,0.00,,,0.00,meteohub,2013-08-04 18:27:00,
2013-08-04 11:32:00,63.9,44.8,30.20,NW,323,4.0,5.0,50,0.00,,,0.00,meteohub,2013-08-04 18:32:00,
2013-08-04 11:37:00,63.9,48.4,30.20,NW,326,5.0,5.0,57,0.00,,,0.00,meteohub,2013-08-04 18:37:00,
2013-08-04 11:42:00,64.2,46.2,30.20,NNW,330,5.0,5.0,52,0.00,,,0.00,meteohub,2013-08-04 18:42:00,
2013-08-04 11:47:00,64.2,49.1,30.19,NW,317,6.0,6.0,58,0.00,,,0.00,meteohub,2013-08-04 18:47:00,
2013-08-04 11:52:00,64.2,48.7,30.19,NW,311,5.0,6.0,57,0.00,,,0.00,meteohub,2013-08-04 18:52:00,
2013-08-04 11:57:00,64.6,48.9,30.19,NW,319,4.0,6.0,57,0.00,,,0.00,meteohub,2013-08-04 18:57:00,
2013-08-04 12:02:00,64.8,48.2,30.19,NW,317,5.0,6.0,55,0.00,,,0.00,meteohub,2013-08-04 19:02:00,
2013-08-04 12:07:00,64.8,48.2,30.19,NW,311,5.0,6.0,55,0.00,,,0.00,meteohub,2013-08-04 19:07:00,
2013-08-04 12:12:00,65.3,48.7,30.19,NW,323,2.0,6.0,55,0.00,,,0.00,meteohub,2013-08-04 19:12:00,
2013-08-04 12:17:00,65.7,48.6,30.19,NW,320,4.0,6.0,54,0.00,,,0.00,meteohub,2013-08-04 19:17:00,
2013-08-04 12:23:00,66.0,49.8,30.19,NW,319,1.0,6.0,56,0.00,,,0.00,meteohub,2013-08-04 19:23:00,
2013-08-04 12:27:00,66.0,50.9,30.19,NW,323,4.0,6.0,58,0.00,,,0.00,meteohub,2013-08-04 19:27:00,
2013-08-04 12:33:00,65.8,49.6,30.19,NW,311,5.0,7.0,56,0.00,,,0.00,meteohub,2013-08-04 19:33:00,
2013-08-04 12:37:00,65.8,50.7,30.19,NW,323,5.0,7.0,58,0.00,,,0.00,meteohub,2013-08-04 19:37:00,
2013-08-04 12:43:00,65.8,50.7,30.19,NNW,337,5.0,7.0,58,0.00,,,0.00,meteohub,2013-08-04 19:43:00,
2013-08-04 12:47:00,65.8,50.2,30.19,NW,319,6.0,7.0,57,0.00,,,0.00,meteohub,2013-08-04 19:47:00,
2013-08-04 12:53:00,66.0,50.4,30.18,NNW,333,5.0,7.0,57,0.00,,,0.00,meteohub,2013-08-04 19:53:00,
2013-08-04 12:58:00,66.6,49.5,30.18,NNW,331,5.0,6.0,54,0.00,,,0.00,meteohub,2013-08-04 19:58:00,
2013-08-04 13:03:00,66.6,47.3,30.18,NNW,333,4.0,6.0,50,0.00,,,0.00,meteohub,2013-08-04 20:03:00,
2013-08-04 13:08:00,66.9,45.0,30.18,NNW,330,4.0,6.0,45,0.00,,,0.00,meteohub,2013-08-04 20:08:00,
2013-08-04 13:13:00,67.3,46.9,30.18,NNW,330,3.0,6.0,48,0.00,,,0.00,meteohub,2013-08-04 20:13:00,
2013-08-04 13:18:00,67.6,48.4,30.18,NNW,333,4.0,6.0,50,0.00,,,0.00,meteohub,2013-08-04 20:18:00,
2013-08-04 13:23:00,67.8,48.6,30.18,NW,315,0.0,6.0,50,0.00,,,0.00,meteohub,2013-08-04 20:23:00,
2013-08-04 13:28:00,68.4,46.8,30.18,NNW,333,5.0,5.0,46,0.00,,,0.00,meteohub,2013-08-04 20:28:00,
2013-08-04 13:33:00,68.2,48.4,30.18,NW,319,6.0,6.0,49,0.00,,,0.00,meteohub,2013-08-04 20:33:00,
2013-08-04 13:38:00,68.0,49.3,30.18,NW,322,6.0,7.0,51,0.00,,,0.00,meteohub,2013-08-04 20:38:00,
2013-08-04 13:43:00,68.0,51.8,30.18,NNW,330,5.0,7.0,56,0.00,,,0.00,meteohub,2013-08-04 20:43:00,
2013-08-04 13:49:00,68.2,48.4,30.18,North,351,6.0,7.0,49,0.00,,,0.00,meteohub,2013-08-04 20:49:00,
2013-08-04 13:54:00,68.4,48.4,30.17,NW,320,3.0,7.0,49,0.00,,,0.00,meteohub,2013-08-04 20:54:00,
2013-08-04 13:59:00,68.7,49.8,30.17,NNW,337,5.0,7.0,51,0.00,,,0.00,meteohub,2013-08-04 20:59:00,
2013-08-04 14:04:00,68.7,50.4,30.17,NNW,344,8.0,8.0,52,0.00,,,0.00,meteohub,2013-08-04 21:04:00,
2013-08-04 14:09:00,68.7,49.3,30.17,NNW,346,6.0,8.0,50,0.00,,,0.00,meteohub,2013-08-04 21:09:00,
2013-08-04 14:14:00,68.9,50.5,30.17,NNW,331,6.0,9.0,52,0.00,,,0.00,meteohub,2013-08-04 21:14:00,
2013-08-04 14:19:00,69.3,50.4,30.17,NNE,26,6.0,9.0,51,0.00,,,0.00,meteohub,2013-08-04 21:19:00,
2013-08-04 14:24:00,69.3,48.7,30.17,NNW,340,6.0,9.0,48,0.00,,,0.00,meteohub,2013-08-04 21:24:00,
2013-08-04 14:29:00,69.6,51.8,30.17,NNW,337,5.0,9.0,53,0.00,,,0.00,meteohub,2013-08-04 21:29:00,
2013-08-04 14:34:00,69.6,53.2,30.17,NNW,327,6.0,9.0,56,0.00,,,0.00,meteohub,2013-08-04 21:34:00,
2013-08-04 14:39:00,69.6,51.8,30.16,NNW,347,5.0,9.0,53,0.00,,,0.00,meteohub,2013-08-04 21:39:00,
2013-08-04 14:44:00,70.0,52.5,30.16,NNW,348,6.0,7.0,54,0.00,,,0.00,meteohub,2013-08-04 21:44:00,
2013-08-04 14:49:00,70.2,54.1,30.16,NNW,333,6.0,7.0,57,0.00,,,0.00,meteohub,2013-08-04 21:49:00,
2013-08-04 14:54:00,70.3,51.8,30.16,NNW,336,5.0,7.0,52,0.00,,,0.00,meteohub,2013-08-04 21:54:00,
2013-08-04 14:59:00,70.5,52.5,30.16,NNE,19,6.0,8.0,53,0.00,,,0.00,meteohub,2013-08-04 21:59:00,
2013-08-04 15:04:00,70.5,50.9,30.16,NNE,29,5.0,8.0,50,0.00,,,0.00,meteohub,2013-08-04 22:04:00,
2013-08-04 15:10:00,70.9,51.3,30.15,NNW,327,5.0,7.0,50,0.00,,,0.00,meteohub,2013-08-04 22:10:00,
2013-08-04 15:15:00,70.9,50.7,30.15,NNE,12,7.0,8.0,49,0.00,,,0.00,meteohub,2013-08-04 22:15:00,
2013-08-04 15:19:00,70.9,50.2,30.15,NNW,344,7.0,8.0,48,0.00,,,0.00,meteohub,2013-08-04 22:19:00,
2013-08-04 15:24:00,70.9,52.3,30.15,North,350,9.0,9.0,52,0.00,,,0.00,meteohub,2013-08-04 22:24:00,
2013-08-04 15:30:00,71.1,50.9,30.15,NNE,31,9.0,11.0,49,0.00,,,0.00,meteohub,2013-08-04 22:30:00,
2013-08-04 15:35:00,71.1,50.9,30.15,NNE,26,9.0,11.0,49,0.00,,,0.00,meteohub,2013-08-04 22:35:00,
2013-08-04 15:40:00,71.1,50.9,30.15,NE,38,8.0,11.0,49,0.00,,,0.00,meteohub,2013-08-04 22:40:00,
2013-08-04 15:45:00,71.1,49.8,30.15,NE,34,8.0,10.0,47,0.00,,,0.00,meteohub,2013-08-04 22:45:00,
2013-08-04 15:50:00,71.1,54.1,30.14,NNE,15,11.0,11.0,55,0.00,,,0.00,meteohub,2013-08-04 22:50:00,
2013-08-04 15:55:00,71.1,52.5,30.15,NNW,347,10.0,13.0,52,0.00,,,0.00,meteohub,2013-08-04 22:55:00,
2013-08-04 16:00:00,71.2,48.7,30.15,North,5,8.0,13.0,45,0.00,,,0.00,meteohub,2013-08-04 23:00:00,
2013-08-04 16:05:00,71.2,48.2,30.15,NW,323,5.0,13.0,44,0.00,,,0.00,meteohub,2013-08-04 23:05:00,
2013-08-04 16:10:00,71.2,54.7,30.14,North,350,6.0,12.0,56,0.00,,,0.00,meteohub,2013-08-04 23:10:00,
2013-08-04 16:15:00,71.2,52.2,30.14,NNW,337,9.0,10.0,51,0.00,,,0.00,meteohub,2013-08-04 23:15:00,
2013-08-04 16:20:00,71.4,51.3,30.14,NNW,331,8.0,12.0,49,0.00,,,0.00,meteohub,2013-08-04 23:20:00,
2013-08-04 16:25:00,71.6,52.5,30.14,NW,326,9.0,12.0,51,0.00,,,0.00,meteohub,2013-08-04 23:25:00,
2013-08-04 16:30:00,72.1,50.7,30.14,NNW,345,8.0,12.0,47,0.00,,,0.00,meteohub,2013-08-04 23:30:00,
2013-08-04 16:35:00,72.0,53.4,30.14,NW,320,7.0,12.0,52,0.00,,,0.00,meteohub,2013-08-04 23:35:00,
2013-08-04 16:41:00,71.8,51.6,30.14,NNW,336,9.0,12.0,49,0.00,,,0.00,meteohub,2013-08-04 23:41:00,
2013-08-04 16:46:00,72.0,48.2,30.14,NW,317,9.0,11.0,43,0.00,,,0.00,meteohub,2013-08-04 23:46:00,
2013-08-04 16:50:00,72.0,48.9,30.14,NW,322,10.0,11.0,44,0.00,,,0.00,meteohub,2013-08-04 23:50:00,
2013-08-04 16:56:00,72.1,49.6,30.14,NW,307,11.0,13.0,45,0.00,,,0.00,meteohub,2013-08-04 23:56:00,
2013-08-04 17:01:00,72.3,49.8,30.14,NW,317,12.0,15.0,45,0.00,,,0.00,meteohub,2013-08-05 00:01:00,
2013-08-04 17:06:00,72.3,51.4,30.14,NNW,333,11.0,15.0,48,0.00,,,0.00,meteohub,2013-08-05 00:06:00,
2013-08-04 17:11:00,72.7,50.7,30.14,NNW,327,4.0,15.0,46,0.00,,,0.00,meteohub,2013-08-05 00:11:00,
2013-08-04 17:17:00,72.7,52.3,30.14,NW,310,3.0,14.0,49,0.00,,,0.00,meteohub,2013-08-05 00:17:00,
2013-08-04 17:21:00,72.3,52.7,30.14,NNW,327,7.0,14.0,50,0.00,,,0.00,meteohub,2013-08-05 00:21:00,
2013-08-04 17:27:00,72.1,53.6,30.14,NW,324,11.0,14.0,52,0.00,,,0.00,meteohub,2013-08-05 00:27:00,
2013-08-04 17:32:00,72.9,51.4,30.14,NW,311,7.0,13.0,47,0.00,,,0.00,meteohub,2013-08-05 00:32:00,
2013-08-04 17:37:00,73.0,48.0,30.14,NW,321,1.0,13.0,41,0.00,,,0.00,meteohub,2013-08-05 00:37:00,
2013-08-04 17:42:00,72.9,48.4,30.14,NW,318,6.0,12.0,42,0.00,,,0.00,meteohub,2013-08-05 00:42:00,
2013-08-04 17:47:00,73.0,45.1,30.14,NNW,337,1.0,10.0,37,0.00,,,0.00,meteohub,2013-08-05 00:47:00,
2013-08-04 17:52:00,74.3,40.8,30.14,SSE,151,1.0,8.0,30,0.00,,,0.00,meteohub,2013-08-05 00:52:00,
2013-08-04 17:57:00,75.7,39.4,30.14,SW,236,0.0,8.0,27,0.00,,,0.00,meteohub,2013-08-05 00:57:00,
2013-08-04 18:02:00,76.6,42.8,30.14,SSE,150,2.0,5.0,30,0.00,,,0.00,meteohub,2013-08-05 01:02:00,
2013-08-04 18:07:00,76.8,39.4,30.14,East,101,0.0,4.0,26,0.00,,,0.00,meteohub,2013-08-05 01:07:00,
2013-08-04 18:12:00,76.6,41.2,30.14,SSE,161,2.0,5.0,28,0.00,,,0.00,meteohub,2013-08-05 01:12:00,
2013-08-04 18:17:00,76.5,39.0,30.14,SSE,150,1.0,5.0,26,0.00,,,0.00,meteohub,2013-08-05 01:17:00,
2013-08-04 18:22:00,76.5,39.0,30.14,SE,140,0.0,5.0,26,0.00,,,0.00,meteohub,2013-08-05 01:22:00,
2013-08-04 18:27:00,76.8,41.2,30.15,WSW,242,0.0,5.0,28,0.00,,,0.00,meteohub,2013-08-05 01:27:00,
2013-08-04 18:32:00,77.2,40.6,30.15,South,191,0.0,4.0,27,0.00,,,0.00,meteohub,2013-08-05 01:32:00,
2013-08-04 18:38:00,77.2,39.6,30.15,SE,146,3.0,3.0,26,0.00,,,0.00,meteohub,2013-08-05 01:38:00,
2013-08-04 18:42:00,76.8,39.4,30.15,SSW,203,0.0,4.0,26,0.00,,,0.00,meteohub,2013-08-05 01:42:00,
2013-08-04 18:48:00,76.5,39.0,30.15,West,259,0.0,5.0,26,0.00,,,0.00,meteohub,2013-08-05 01:48:00,
2013-08-04 18:53:00,75.9,39.6,30.15,SSW,205,4.0,5.0,27,0.00,,,0.00,meteohub,2013-08-05 01:53:00,
2013-08-04 18:58:00,75.2,38.8,30.16,South,182,1.0,5.0,27,0.00,,,0.00,meteohub,2013-08-05 01:58:00,
2013-08-04 19:03:00,74.3,39.0,30.16,ESE,109,5.0,5.0,28,0.00,,,0.00,meteohub,2013-08-05 02:03:00,
2013-08-04 19:08:00,73.6,39.4,30.16,SE,146,0.0,6.0,29,0.00,,,0.00,meteohub,2013-08-05 02:08:00,
2013-08-04 19:13:00,72.9,38.7,30.16,SSE,161,1.0,7.0,29,0.00,,,0.00,meteohub,2013-08-05 02:13:00,
2013-08-04 19:18:00,72.3,39.2,30.17,ESE,106,1.0,7.0,30,0.00,,,0.00,meteohub,2013-08-05 02:18:00,
2013-08-04 19:23:00,71.8,39.6,30.17,SW,225,1.0,7.0,31,0.00,,,0.00,meteohub,2013-08-05 02:23:00,
2013-08-04 19:28:00,71.4,38.3,30.17,SSE,148,3.0,7.0,30,0.00,,,0.00,meteohub,2013-08-05 02:28:00,
2013-08-04 19:33:00,70.9,38.7,30.17,SE,128,0.0,3.0,31,0.00,,,0.00,meteohub,2013-08-05 02:33:00,
2013-08-04 19:38:00,70.5,39.2,30.17,SE,128,0.0,6.0,32,0.00,,,0.00,meteohub,2013-08-05 02:38:00,
2013-08-04 19:43:00,70.2,39.7,30.17,SE,128,0.0,6.0,33,0.00,,,0.00,meteohub,2013-08-05 02:43:00,
2013-08-04 19:48:00,69.8,38.7,30.17,SE,146,0.0,6.0,32,0.00,,,0.00,meteohub,2013-08-05 02:48:00,
2013-08-04 19:53:00,69.3,38.8,30.18,ESE,115,0.0,1.0,33,0.00,,,0.00,meteohub,2013-08-05 02:53:00,
2013-08-04 19:58:00,68.9,39.4,30.18,South,184,0.0,2.0,34,0.00,,,0.00,meteohub,2013-08-05 02:58:00,
2013-08-04 20:03:00,68.4,38.8,30.18,SE,125,0.0,2.0,34,0.00,,,0.00,meteohub,2013-08-05 03:03:00,
2013-08-04 20:08:00,67.8,39.2,30.18,South,176,0.0,2.0,35,0.00,,,0.00,meteohub,2013-08-05 03:08:00,
2013-08-04 20:13:00,67.5,38.8,30.18,SSW,207,0.0,1.0,35,0.00,,,0.00,meteohub,2013-08-05 03:13:00,
2013-08-04 20:19:00,66.9,39.0,30.18,SSW,200,1.0,1.0,36,0.00,,,0.00,meteohub,2013-08-05 03:19:00,
2013-08-04 20:24:00,66.6,39.6,30.18,SSE,157,0.0,3.0,37,0.00,,,0.00,meteohub,2013-08-05 03:24:00,
2013-08-04 20:29:00,66.0,39.0,30.19,ESE,111,0.0,3.0,37,0.00,,,0.00,meteohub,2013-08-05 03:29:00,
2013-08-04 20:34:00,65.8,38.8,30.19,ESE,111,0.0,3.0,37,0.00,,,0.00,meteohub,2013-08-05 03:34:00,
2013-08-04 20:39:00,65.5,39.2,30.19,ESE,110,0.0,1.0,38,0.00,,,0.00,meteohub,2013-08-05 03:39:00,
2013-08-04 20:44:00,64.9,38.7,30.19,ESE,118,0.0,1.0,38,0.00,,,0.00,meteohub,2013-08-05 03:44:00,
2013-08-04 20:49:00,64.8,38.5,30.19,ESE,106,0.0,1.0,38,0.00,,,0.00,meteohub,2013-08-05 03:49:00,
2013-08-04 20:54:00,64.2,38.7,30.20,ESE,107,0.0,1.0,39,0.00,,,0.00,meteohub,2013-08-05 03:54:00,
2013-08-04 20:59:00,64.0,38.7,30.20,ESE,103,0.0,1.0,39,0.00,,,0.00,meteohub,2013-08-05 03:59:00,
2013-08-04 21:01:00,64.0,39.2,30.20,ESE,103,0.0,2.0,40,0.00,,,0.00,meteohub,2013-08-05 04:01:00,
2013-08-04 21:02:00,64.0,38.7,30.20,ESE,109,0.0,2.0,39,0.00,,,0.00,meteohub,2013-08-05 04:02:00,
2013-08-04 21:07:00,63.5,38.7,30.20,SSE,147,0.0,2.0,40,0.00,,,0.00,meteohub,2013-08-05 04:07:00,
2013-08-04 21:11:00,63.1,39.0,30.20,ESE,107,0.0,1.0,41,0.00,,,0.00,meteohub,2013-08-05 04:11:00,
2013-08-04 21:17:00,63.0,38.8,30.21,ESE,106,0.0,1.0,41,0.00,,,0.00,meteohub,2013-08-05 04:17:00,
2013-08-04 21:22:00,63.0,38.8,30.21,ESE,103,0.0,1.0,41,0.00,,,0.00,meteohub,2013-08-05 04:22:00,
2013-08-04 21:27:00,62.6,38.5,30.21,ESE,104,0.0,1.0,41,0.00,,,0.00,meteohub,2013-08-05 04:27:00,
2013-08-04 21:32:00,62.2,38.8,30.22,ESE,104,0.0,1.0,42,0.00,,,0.00,meteohub,2013-08-05 04:32:00,
2013-08-04 21:37:00,61.9,38.5,30.22,SSW,198,0.0,1.0,42,0.00,,,0.00,meteohub,2013-08-05 04:37:00,
2013-08-04 21:42:00,61.5,38.8,30.22,South,171,0.0,1.0,43,0.00,,,0.00,meteohub,2013-08-05 04:42:00,
2013-08-04 21:47:00,61.3,38.7,30.22,ESE,111,0.0,1.0,43,0.00,,,0.00,meteohub,2013-08-05 04:47:00,
2013-08-04 21:52:00,61.3,38.7,30.22,East,88,0.0,1.0,43,0.00,,,0.00,meteohub,2013-08-05 04:52:00,
2013-08-04 21:57:00,61.2,38.5,30.22,South,171,0.0,1.0,43,0.00,,,0.00,meteohub,2013-08-05 04:57:00,
2013-08-04 22:02:00,61.0,38.8,30.22,SE,129,0.0,1.0,44,0.00,,,0.00,meteohub,2013-08-05 05:02:00,
2013-08-04 22:07:00,60.8,38.7,30.22,SSE,153,0.0,1.0,44,0.00,,,0.00,meteohub,2013-08-05 05:07:00,
2013-08-04 22:13:00,60.6,38.7,30.22,SE,133,1.0,1.0,44,0.00,,,0.00,meteohub,2013-08-05 05:13:00,
2013-08-04 22:18:00,60.4,39.0,30.22,SE,144,0.0,1.0,45,0.00,,,0.00,meteohub,2013-08-05 05:18:00,
2013-08-04 22:23:00,60.3,38.8,30.22,SE,144,0.0,1.0,45,0.00,,,0.00,meteohub,2013-08-05 05:23:00,
2013-08-04 22:28:00,60.1,38.7,30.22,SE,144,0.0,1.0,45,0.00,,,0.00,meteohub,2013-08-05 05:28:00,
2013-08-04 22:33:00,59.7,38.3,30.22,SE,144,0.0,1.0,45,0.00,,,0.00,meteohub,2013-08-05 05:33:00,
2013-08-04 22:38:00,59.5,38.7,30.22,SE,144,0.0,1.0,46,0.00,,,0.00,meteohub,2013-08-05 05:38:00,
2013-08-04 22:43:00,59.2,38.5,30.22,SE,146,0.0,1.0,46,0.00,,,0.00,meteohub,2013-08-05 05:43:00,
2013-08-04 22:48:00,59.0,38.3,30.22,SE,144,0.0,1.0,46,0.00,,,0.00,meteohub,2013-08-05 05:48:00,
2013-08-04 22:53:00,58.8,38.7,30.23,SE,144,0.0,1.0,47,0.00,,,0.00,meteohub,2013-08-05 05:53:00,
2013-08-04 22:58:00,58.8,38.7,30.23,ESE,120,0.0,1.0,47,0.00,,,0.00,meteohub,2013-08-05 05:58:00,
2013-08-04 23:03:00,58.6,38.5,30.23,SSE,162,0.0,1.0,47,0.00,,,0.00,meteohub,2013-08-05 06:03:00,
2013-08-04 23:08:00,58.5,38.3,30.23,South,174,0.0,1.0,47,0.00,,,0.00,meteohub,2013-08-05 06:08:00,
2013-08-04 23:13:00,58.3,38.1,30.23,SE,141,1.0,1.0,47,0.00,,,0.00,meteohub,2013-08-05 06:13:00,
2013-08-04 23:18:00,57.9,38.3,30.23,SE,128,0.0,1.0,48,0.00,,,0.00,meteohub,2013-08-05 06:18:00,
2013-08-04 23:23:00,57.7,38.1,30.23,SE,144,0.0,1.0,48,0.00,,,0.00,meteohub,2013-08-05 06:23:00,
2013-08-04 23:28:00,57.4,38.3,30.23,SE,143,0.0,1.0,49,0.00,,,0.00,meteohub,2013-08-05 06:28:00,
2013-08-04 23:33:00,57.0,38.1,30.23,SE,133,0.0,1.0,49,0.00,,,0.00,meteohub,2013-08-05 06:33:00,
2013-08-04 23:39:00,56.7,38.3,30.23,SE,134,0.0,1.0,50,0.00,,,0.00,meteohub,2013-08-05 06:39:00,
2013-08-04 23:44:00,56.3,37.9,30.23,SE,133,0.0,1.0,50,0.00,,,0.00,meteohub,2013-08-05 06:44:00,
2013-08-04 23:49:00,55.9,38.5,30.23,SSE,147,0.0,1.0,52,0.00,,,0.00,meteohub,2013-08-05 06:49:00,
2013-08-04 23:54:00,55.8,38.5,30.23,SE,144,0.0,1.0,52,0.00,,,0.00,meteohub,2013-08-05 06:54:00,
2013-08-04 23:59:00,55.4,38.1,30.23,SSE,147,0.0,1.0,52,0.00,,,0.00,meteohub,2013-08-05 06:59:00,